Somerville, NJ

8:50 PM EDT on July 25, 2017 (GMT -0400)
Somerset

Weather History for KSMQ - August, 2012

Change the Weather History Date:

Friday, August 10, 2012

  Actual Average Record
Temperature  
Mean Temperature 74 °F -  
Max Temperature 81 °F 85 °F 101 °F (1949)
Min Temperature 69 °F 63 °F 47 °F (1964)
Cooling Degree Days 9    
Growing Degree Days 24 (Base 50)    
Moisture  
Dew Point 71 °F    
Average Humidity 92    
Maximum Humidity 100    
Minimum Humidity 74    
Precipitation  
Precipitation 1.27 in - - ()
Sea Level Pressure  
Sea Level Pressure 29.80 in    
Wind  
Wind Speed 1 mph (SSW)    
Max Wind Speed 7 mph    
Max Gust Speed 17 mph    
Visibility 6 miles    
Events Fog , Rain    
Averages and records for this station are not official NWS values.
T = Trace of Precipitation, MM = Missing Value Source: NWS Daily Summary

Daily Weather History Graph

Daily Weather History Graph

Search for Another Location

Airport or City:

Trip Planner

Search our weather history database for the weather conditions in past years. The results will help you decide how hot, cold, wet, or windy it might be!

Date:

Astronomy

Aug. 10, 2012 Rise Set
Actual Time 6:04 AM EDT 8:02 PM EDT
Civil Twilight 5:34 AM EDT 8:32 PM EDT
Nautical Twilight 4:58 AM EDT 9:08 PM EDT
Astronomical Twilight 4:19 AM EDT 9:47 PM EDT
Moon No Moon Rise 2:41 PM EDT (8/10)
Length of Visible Light 14h 57m
Length of Day
13h 57m
Last Quarter, 42% of the Moon is Illuminated
Aug 10
Last Quarter
Aug 17
New
Aug 24
First Quarter
Aug 31
Full
Sep 8
Last Quarter

Hourly Weather History & Observations

Time (EDT) Temp. Dew Point Humidity Pressure Visibility Wind Dir Wind Speed Gust Speed Precip Events Conditions
12:46 AM 71.6 °F 69.8 °F 94% 29.86 in 5.0 mi Calm Calm - N/A   Mostly Cloudy
12:53 AM 71.1 °F 70.0 °F 96% 29.87 in 5.0 mi Calm Calm - N/A   Mostly Cloudy
1:53 AM 72.0 °F 70.0 °F 93% 29.86 in 6.0 mi Calm Calm - N/A   Overcast
2:53 AM 72.0 °F 71.1 °F 97% 29.84 in 5.0 mi Calm Calm - N/A   Overcast
3:53 AM 73.0 °F 71.1 °F 93% 29.83 in 5.0 mi SE 3.5 mph - N/A   Overcast
4:53 AM 75.0 °F 73.0 °F 94% 29.82 in 6.0 mi Calm Calm - N/A   Overcast
5:53 AM 75.0 °F 73.0 °F 94% 29.83 in 5.0 mi Calm Calm - N/A   Overcast
6:53 AM 75.0 °F 73.9 °F 96% 29.82 in 5.0 mi Calm Calm - N/A   Overcast
7:08 AM 75.2 °F 73.4 °F 94% 29.82 in 5.0 mi SSE 3.5 mph - N/A   Mostly Cloudy
7:53 AM 77.0 °F 75.0 °F 94% 29.82 in 6.0 mi Variable 3.5 mph - N/A   Overcast
8:53 AM 78.1 °F 75.0 °F 90% 29.82 in 7.0 mi Variable 4.6 mph - N/A   Mostly Cloudy
9:40 AM 78.8 °F 75.2 °F 89% 29.81 in 8.0 mi Calm Calm - N/A   Overcast
9:53 AM 78.8 °F 75.2 °F 89% 29.80 in 8.0 mi Calm Calm - N/A   Overcast
10:33 AM 78.8 °F 75.2 °F 89% 29.79 in 7.0 mi Calm Calm - 0.01 in Rain Light Rain
10:53 AM 75.0 °F 70.0 °F 84% 29.80 in 5.0 mi Variable 6.9 mph - 0.02 in Rain Light Rain
10:56 AM 73.4 °F 68.0 °F 83% 29.81 in 2.5 mi West 4.6 mph - 0.02 in Rain Light Rain
11:02 AM 71.6 °F 68.0 °F 88% 29.84 in 0.8 mi West 6.9 mph 17.3 mph 0.16 in Rain Heavy Rain
11:11 AM 69.8 °F 69.8 °F 100% 29.84 in 0.2 mi NW 5.8 mph - 0.72 in Fog , Rain Heavy Rain
11:19 AM 69.8 °F 69.8 °F 100% 29.82 in 0.2 mi Calm Calm - 1.03 in Fog , Rain Heavy Rain
11:24 AM 69.8 °F 69.8 °F 100% 29.81 in 0.2 mi Calm Calm - 1.09 in Fog , Rain Heavy Rain
11:31 AM 69.8 °F 68.0 °F 94% 29.80 in 0.8 mi Calm Calm - 1.12 in Rain Rain
11:36 AM 69.8 °F 69.8 °F 100% 29.80 in 2.0 mi NNW 3.5 mph - 1.13 in Rain Rain
11:41 AM 69.8 °F 69.8 °F 100% 29.80 in 3.0 mi Calm Calm - 1.14 in Rain Light Rain
11:53 AM 71.1 °F 70.0 °F 96% 29.79 in 8.0 mi Calm Calm - 1.14 in Rain Light Rain
12:53 PM 71.1 °F 70.0 °F 96% 29.79 in 4.0 mi Calm Calm - 0.10 in Rain Light Rain
1:53 PM 77.0 °F 71.1 °F 82% 29.76 in 10.0 mi Calm Calm - 0.01 in   Overcast
2:21 PM 75.2 °F 71.6 °F 89% 29.76 in 10.0 mi Calm Calm - N/A   Overcast
2:53 PM 77.0 °F 71.1 °F 82% 29.76 in 10.0 mi Calm Calm - N/A   Overcast
3:11 PM 75.2 °F 69.8 °F 83% 29.76 in 10.0 mi SSE 3.5 mph - N/A   Overcast
3:53 PM 79.0 °F 71.1 °F 77% 29.75 in 10.0 mi SSE 5.8 mph - N/A   Mostly Cloudy
4:53 PM 78.1 °F 70.0 °F 76% 29.75 in 10.0 mi Calm Calm - N/A   Overcast
5:53 PM 79.0 °F 70.0 °F 74% 29.74 in 10.0 mi Calm Calm - N/A   Scattered Clouds
6:53 PM 78.1 °F 73.0 °F 84% 29.75 in 10.0 mi Calm Calm - N/A   Mostly Cloudy
7:53 PM 75.0 °F 73.0 °F 94% 29.75 in 10.0 mi Calm Calm - N/A   Clear
8:53 PM 73.9 °F 73.0 °F 97% 29.76 in 10.0 mi Calm Calm - N/A   Clear
9:53 PM 73.0 °F 72.0 °F 96% 29.78 in 10.0 mi Calm Calm - N/A   Mostly Cloudy
10:25 PM 71.6 °F 71.6 °F 100% 29.78 in 1.5 mi Calm Calm - N/A   Scattered Clouds
10:36 PM 71.6 °F 71.6 °F 100% 29.78 in 3.0 mi Calm Calm - N/A   Partly Cloudy
10:53 PM 71.1 °F 70.0 °F 96% 29.78 in 4.0 mi Calm Calm - N/A   Partly Cloudy
10:55 PM 71.6 °F 69.8 °F 94% 29.78 in 1.5 mi Calm Calm - N/A   Partly Cloudy
11:00 PM 71.6 °F 69.8 °F 94% 29.78 in 0.8 mi Calm Calm - N/A   Mist
11:05 PM 71.6 °F 69.8 °F 94% 29.78 in 1.5 mi Calm Calm - N/A   Partly Cloudy
11:08 PM 71.6 °F 71.6 °F 100% 29.78 in 3.0 mi Calm Calm - N/A   Partly Cloudy
11:53 PM 71.1 °F 70.0 °F 96% 29.78 in 10.0 mi Calm Calm - N/A   Scattered Clouds